NOAA 16 DEB

Satellite information

Favourite Embed

Satellite Type and Status

DEBRISIN ORBIT

Key statistics

Satellite NOAA 16 DEB at a glance.

Uptime

9115

Days in orbit

Revolutions

≈ 14.4

Per day

Orbit

SSO

Sun Synchronous Orbit

Inclination

98.9

Latest

Satellite identification and parameters

Extended collection of information and parameters for NOAA 16 DEB.

Object identification

Identified? True

Debris? True

Object name: NOAA 16 DEB

International designator: 2000-055NR

Object number (NORAD): 41652

Object ID (CCSDS): 41652

Country: UNITED STATES OF AMERICA (US)

Current information (Y/N): Y

RCS size: SMALL

Orbital parameters

Period: 100.127 minutes

Inclination: 98.879 deg

SMA: 7142.696 km

Apoapsis: 790.929 km

Periapsis: 738.193 km

RAAN: 346.0923 deg

Eccentricy: 0.00369159

Argument of periapsis: 203.3756 deg

Mean anomaly: 156.5753 deg

Mean motion: 14.3816773 rev/day

Mean motion (dot): 0.00029822 rev/day2

B* drag term: 0.0097218597 1/REarth

Two-line elements (TLE)

Creation date: Sept. 3, 2025, 10:15 a.m.

Reference frame: TEME

Reference center: EARTH

Epoch: Sept. 3, 2025, 5:48 a.m. UTC

TLE line 0: 0 NOAA 16 DEB

TLE line 1: 1 41652U 00055NR 25246.24198617 .00029822 00000-0 97219-2 0 9998

TLE line 2: 2 41652 98.8790 346.0923 0036916 203.3756 156.5753 14.38167730483646

Live tracking on map

Real-time ground track for satellite NOAA 16 DEB.

In-orbit conjunctions

A list of the most updated potential collisions computed for object NOAA 16 DEB.

Target Orbit TCA Probability of collision Miss distance Type
CZ-6A DEB LEO 2025-02-27 00:35:51 0.0001322383 498.0 (m) DEBRIS
FENGYUN 1C DEB SSO 2024-11-09 17:59:32 0.0005950014 430.0 (m) DEBRIS
FEDSAT SSO 2024-11-09 09:16:02 0.0002281639 363.0 (m) PAYLOAD
CZ-6A DEB LEO 2024-09-25 14:31:54 0.00073323 849.0 (m) DEBRIS

Associated space launch

The NOAA K, L and M POES satellites begin the fifth generation of improved environmental monitoring in support of NOAA missions. The instrument payload has significant improvements and additions/deletions. The instrument changes have effected the spacecraft subsystems and data formats.

NOAA 16 DEB was lifted into orbit during the mission ‘Titan II SLV | NOAA 16’, on board a Titan II SLV space rocket.

The launch took place on Sept. 21, 2000, 10:22 a.m. from Space Launch Complex 4W.

For more information about the launch, click the button.

Launch to space Titan II SLV | NOAA 16
Titan II SLV | NOAA 16

Agency: N/A

Status: Launch Successful

Launch date: Sept. 21, 2000, 10:22 a.m. UTC

Rocket: Titan II SLV

Launch pad: Space Launch Complex 4W

Location: Vandenberg SFB, CA, USA

...

Latest news about this satellite

There are no fresh news available about this satellite. Check back as we update our databases every day.


Newsletter sign-up

Weekly statistics, charts and insights to help you stay on top of the space industry.